Home > Weather > Shantou > Past weeks

Flag for China Past Weather in Shantou, Guangdong, China — Yesterday and Last 2 Weeks

Now
79 °F

Partly cloudy.


Feels Like: 82 °F
Forecast: 75 / 86 °F
Wind: 3 mph from East

Location: Shantou Airport

Current Time: May 24, 2016 at 9:58:24 PM

Latest Report: May 24, 2016 at 9:00 PM


Visibility: N/A

Pressure: 29.80 "Hg

Humidity: 84%

Dew Point: 73 °F

Location of ShantouLocation

Past Weather in Shantou — Graph

°F

Shantou Temperature Yesterday

Maximum temperature yesterday: 88 °F (at 12:00 PM)
Minimum temperature yesterday: 77 °F (at 12:00 AM)
Average temperature yesterday: 81 °F

High & Low Weather Summary for the Past Weeks

 TemperatureHumidityPressure
High90 °F (May 15, 2:00 PM)100% (May 13, 3:00 AM)30.04 "Hg (May 13, 3:00 AM)
Low68 °F (May 17, 12:00 AM)52% (May 12, 3:00 PM)29.68 "Hg (May 24, 4:00 PM)
Average78 °F78%29.84 "Hg
* Reported May 9 8:00 PM — May 24 8:00 PM, Shantou, Weather by CustomWeather, © 2016

Note: Actual official high and low records may vary slightly from our data, if they occured in-between our weather recording intervals... More about our weather records

Advertising

Shantou Weather History for the Previous 24 Hours

Scroll right to see more
 ConditionsComfort  
Time TempWeatherWind HumidityBarometerVisibility
8:00 PM
Tue, May 24
79 °FPartly cloudy.6 mph84%29.77 "HgN/A
7:00 PM81 °FPartly cloudy.3 mph79%29.74 "HgN/A
6:00 PM82 °FPartly sunny.10 mph79%29.71 "Hg4 mi
5:00 PM86 °FPartly sunny.8 mph70%29.71 "Hg5 mi
4:00 PM90 °FBroken clouds.8 mph63%29.68 "Hg4 mi
3:00 PM90 °FBroken clouds.6 mph63%29.71 "HgN/A
2:00 PM88 °FScattered clouds.3 mph62%29.71 "HgN/A
1:00 PM88 °FScattered clouds.3 mph62%29.74 "HgN/A
12:00 PM86 °FScattered clouds.3 mph66%29.77 "HgN/A
11:00 AM84 °FBroken clouds.1 mph74%29.80 "Hg4 mi
10:00 AM81 °FBroken clouds.1 mph84%29.80 "Hg4 mi
9:00 AM79 °FPartly sunny.3 mph84%29.80 "Hg4 mi
8:00 AM77 °FLight rain. Fog.No wind94%29.80 "Hg2 mi
7:00 AM77 °FFog.1 mph94%29.80 "Hg3 mi
6:00 AM77 °FBroken clouds.1 mph89%29.80 "Hg4 mi
5:00 AM77 °FPartly cloudy.3 mph89%29.77 "Hg4 mi
4:00 AM77 °FPartly cloudy.3 mph89%29.77 "Hg4 mi
3:00 AM77 °FPartly cloudy.6 mph89%29.77 "Hg4 mi
2:00 AM77 °FPartly cloudy.3 mph89%29.77 "Hg5 mi
1:00 AM77 °FPartly cloudy.6 mph89%29.80 "Hg4 mi
12:00 AM77 °FPartly cloudy.3 mph89%29.80 "Hg4 mi
11:00 PM
Mon, May 23
77 °FPartly cloudy.1 mph94%29.80 "Hg4 mi
10:00 PM79 °FPartly cloudy.3 mph89%29.80 "Hg5 mi
9:00 PM79 °FPassing clouds.6 mph89%29.80 "HgN/A
Weather by CustomWeather, © 2016

See weather overviewHow to use our weather pages